Regional Weather Roundup
Issued by NWS

Home | Current Version | Previous Version | Graphics & Text | Print | Product List | Glossary On
Versions: 1 2 3 4 5 6 7 8 9 10 11 12 13 14 15 16 17 18 19 20 21 22 23 24 25 26 27 28 29 30 31 32 33 34 35 36 37 38 39 40 41 42 43 44 45 46 47 48 49 50
000
ASUS45 KCYS 290210
RWRWY

WYOMING REGIONAL WEATHER ROUNDUP
NATIONAL WEATHER SERVICE CHEYENNE WY
800 PM MDT SUN MAY 28 2017

NOTE:  "FAIR" INDICATES FEW OR NO CLOUDS BELOW 12,000 FEET
WITH NO SIGNIFICANT WEATHER AND/OR OBSTRUCTIONS TO VISIBILITY.

WYZ001-290300-
YELLOWSTONE NATIONAL PARK

CITY           SKY/WX    TMP DP  RH WIND       PRES   REMARKS
LK YELLOWSTONE   N/A     46  36  68 CALM      30.39R
W YELLOWSTONE  NOT AVBL

$$
WYZ002>013-054>058-071-098>099-290300-
NORTHERN WYOMING

CITY           SKY/WX    TMP DP  RH WIND       PRES   REMARKS
JACKSON        PTCLDY    64  32  29 NW10      30.27R
CODY           FAIR      60  41  49 SW7       30.27S
GREYBULL       FAIR      66  39  37 NE9       30.20R
WORLAND        CLOUDY    63  43  48 S7        30.21S
SHERIDAN       FAIR      60  43  53 W14       30.19F
BUFFALO        FAIR      59  37  44 NW21      30.23F
GILLETTE         N/A    N/A N/A N/A MISG      30.16S
HULETT         FAIR      57  41  54 W8        30.13S
NEWCASTLE      FAIR      59  36  41 NW14G21   30.15R

$$
WYZ014>020-022>026-101>103-290300-
CENTRAL WYOMING

CITY           SKY/WX    TMP DP  RH WIND       PRES   REMARKS
BIG PINEY      FAIR      63  28  26 N8        30.28S
PINEDALE       FAIR      61  25  25 NW10G16   30.29S
DUBOIS         CLOUDY    55  32  41 E8        30.30R
LANDER         LGT RAIN  56  42  59 MISG      30.27R
RIVERTON       FAIR      58  40  51 N14       30.23R
CASPER         RAIN      49  45  86 NW17G33   30.31R FOG
DOUGLAS        MOCLDY    56  39  53 N16G26    30.23R

$$
WYZ021-027>030-104>119-290300-
SOUTHERN WYOMING

CITY           SKY/WX    TMP DP  RH WIND       PRES   REMARKS
EVANSTON       FAIR      61  32  33 N14       30.28S
KEMMERER         N/A     61  28  29 W10       30.30S
FORT BRIDGER   FAIR      64  28  26 N9        30.30S
ROCK SPRINGS   FAIR      63  25  23 NW5       30.26S
DIXON            N/A     63  28  26 CALM      30.28S
RAWLINS        FAIR      56  30  37 N8        30.26S
SARATOGA       MOCLDY    59  32  36 N12G24    30.28R
LARAMIE        FAIR      56  31  38 N13       30.26S
CHEYENNE       FAIR      57  38  48 W9        30.25R
TORRINGTON     FAIR      64  40  41 NW9       30.13S
PINE BLUFFS    FAIR      55  41  58 NW6       30.20R

$$



USA.gov is the U.S. government's official web portal to all federal, state and local government web resources and services.